SB KEPS @ AMSAT $ORB14030.N 2Line Orbital Elements 14030.AMSAT
HR AMSAT ORBITAL ELEMENTS FOR AMATEUR SATELLITES IN NASA FORMAT FROM WA5QGD FORT WORTH,TX January 30, 2014 BID: ORB14030.N
DECODE 2-LINE ELSETS WITH THE FOLLOWING KEY: 1 AAAAAU 00 0 0 BBBBB.BBBBBBBB .CCCCCCCC 00000-0 00000-0 0 DDDZ 2 AAAAA EEE.EEEE FFF.FFFF GGGGGGG HHH.HHHH III.IIII JJ.JJJJJJJJKKKKKZ KEY: A-CATALOGNUM B-EPOCHTIME C-DECAY D-ELSETNUM E-INCLINATION F-RAAN G-ECCENTRICITY H-ARGPERIGEE I-MNANOM J-MNMOTION K-ORBITNUM Z-CHECKSUM
TO ALL RADIO AMATEURS BT
AO-07 1 07530U 74089B 14030.56388569 -.00000032 00000-0 67931-4 0 8839 2 07530 101.4581 017.0087 0011802 202.3269 270.7644 12.53601753794278 FO-29 1 24278U 96046B 14029.72986656 -.00000025 00000-0 13521-4 0 2956 2 24278 098.5243 062.6360 0349491 296.9011 183.3585 13.53014526861948 SO-33 1 25509U 98061B 14029.78178883 .00000435 00000-0 74180-4 0 6792 2 25509 031.4305 224.4686 0350431 341.9804 083.5643 14.29290173797332 RS-22 1 27939U 03042A 14030.74933614 .00001081 00000-0 21063-3 0 1766 2 27939 097.8003 211.8125 0012985 181.2278 178.8898 14.64839438552600 VO-52 1 28650U 05017B 14029.52566045 .00002591 00000-0 31067-3 0 6458 2 28650 097.5612 041.4933 0023996 253.8377 267.3304 14.84682369472651 HO-68 1 36122U 09072B 14030.84233390 -.00000043 00000-0 00000 0 0 2813 2 36122 100.2722 086.7948 0007428 190.7567 169.3379 13.16311271198369 AO-73 1 39444U 13066AE 14029.77084313 .00001786 00000-0 25005-3 0 504 2 39444 097.7920 105.1157 0062779 333.1197 026.6774 14.77432854 9026 UO-11 1 14781U 84021B 14030.04296610 .00000870 00000-0 11828-3 0 4029 2 14781 097.8714 092.7565 0007473 268.3240 091.7116 14.81264307607519 AO-16 1 20439U 90005D 14030.06437738 .00000211 00000-0 94025-4 0 9435 2 20439 098.4963 330.0937 0010628 201.9822 219.9057 14.32272609254713 LO-19 1 20442U 90005G 14030.05788663 .00000206 00000-0 91850-4 0 8801 2 20442 098.4666 331.1628 0011785 191.7374 168.3537 14.32478644254907 AO-27 1 22825U 93061C 14029.89587035 .00000192 00000-0 92229-4 0 5849 2 22825 098.6476 336.8359 0007968 350.9360 045.3972 14.29647295 61022 IO-26 1 22826U 93061D 14029.84288734 .00000218 00000-0 10174-3 0 3417 2 22826 098.6417 337.0263 0008381 343.1680 016.9223 14.29940106 61147 GO-32 1 25397U 98043D 14030.87726821 .00000117 00000-0 70043-4 0 2652 2 25397 098.4507 354.1278 0001427 044.9500 008.2320 14.23397467808330 NO-44 1 26931U 01043C 14030.47905763 .00000168 00000-0 96975-4 0 5247 2 26931 067.0526 033.5381 0005710 268.6143 091.4304 14.30029482643912 SO-50 1 27607U 02058C 14030.87582329 .00000888 00000-0 15637-3 0 2902 2 27607 064.5567 290.7970 0033820 063.2230 006.5471 14.73371704597251 CO-55 1 27844U 03031E 14030.59888390 .00000344 00000-0 17739-3 0 8440 2 27844 098.7006 041.3550 0008769 316.2723 155.5199 14.21373813549038 CO-57 1 27848U 03031J 14030.57699281 .00000287 00000-0 15243-3 0 7859 2 27848 098.7098 040.9687 0008781 323.8166 162.3643 14.21078700548955 AO-51 1 28375U 04025K 14029.92853618 .00000414 00000-0 13563-3 0 7598 2 28375 098.2350 341.6792 0084132 051.0471 350.0133 14.41257396503995 CP3 1 31129U 07012N 14030.85128546 .00001536 00000-0 34936-3 0 6623 2 31129 097.9205 015.9455 0100696 079.0347 344.9310 14.54168678360071 CO-65 1 32785U 08021C 14030.83985019 .00001808 00000-0 21990-3 0 8559 2 32785 097.7194 086.5643 0012661 280.0320 132.2693 14.84620495311641 PRISM 1 33493U 09002B 14030.83115136 .00004472 00000-0 49541-3 0 5976 2 33493 098.2363 200.8744 0017962 169.7128 190.4473 14.87736863271741 SOHLA-1 1 33496U 09002E 14029.88095285 .00000684 00000-0 12090-3 0 2612 2 33496 098.1531 150.6434 0005538 330.1641 140.3881 14.70557662269180 TISAT-1 1 36799U 10035E 14030.84374218 .00002767 00000-0 33423-3 0 8627 2 36799 098.0220 121.9108 0015229 052.0953 308.1638 14.84507429192333 STUDSAT 1 36801U 10035G 14028.90484932 .00013398 00000-0 13157-2 0 7598 2 36801 098.0373 125.6262 0010651 034.0871 101.3951 14.92258849192329 ALMASAT-1 1 38078U 12006B 14029.84777075 .00030468 00000-0 67438-3 0 9167 2 38078 069.4735 030.0647 0644304 214.5163 219.5383 14.38167705101662 XATCOBEO 1 38082U 12006F 14030.86103515 .00107475 54334-5 14131-2 0 8996 2 38082 069.4635 326.9667 0415912 180.4529 286.7896 14.96767039103468 CUBEBUG-1 1 39153U 13018D 14030.73933553 .00001475 00000-0 21570-3 0 8095 2 39153 098.0538 111.3126 0019259 074.4852 285.8483 14.77076341 41268 ESTCUBE-1 1 39161U 13021C 14030.84097731 .00001195 00000-0 20979-3 0 7796 2 39161 098.1082 112.7363 0011272 107.7912 252.4519 14.69494780 39421 NOAA-10 1 16969U 86073A 14030.55905270 .00000107 00000-0 60817-4 0 6559 2 16969 098.5258 058.1955 0011101 300.2350 214.9789 14.27709921424383 NOAA-11 1 19531U 88089A 14030.27505528 .00000107 00000-0 77238-4 0 6787 2 19531 098.6917 112.7720 0010476 337.1142 022.9563 14.15053189308230 NOAA-12 1 21263U 91032A 14030.53263155 .00000063 00000-0 45174-4 0 1487 2 21263 098.6778 058.8770 0012733 278.1366 237.7649 14.25621506180947 MET-3/5 1 21655U 91056A 14030.84807231 -.00000418 00000-0 -11187-2 0 8917 2 21655 082.5546 093.4647 0012035 279.7556 080.2207 13.17056823 79906 MET-2/21 1 22782U 93055A 14030.83715057 .00000002 00000-0 -11396-4 0 9646 2 22782 082.5486 282.2861 0021049 290.9674 185.3761 13.83724100 31125 OKEAN-4 1 23317U 94066A 14030.87014131 .00001867 00000-0 21531-3 0 4435 2 23317 082.5387 196.6146 0020972 190.3886 314.9504 14.85022061 42729 NOAA-14 1 23455U 94089A 14030.43667515 .00000110 00000-0 80652-4 0 6268 2 23455 098.7861 116.2805 0010368 075.3015 334.1655 14.13944896984481 NOAA-15 1 25338U 98030A 14030.47814022 .00000217 00000-0 11082-3 0 566 2 25338 098.7446 024.6756 0010778 182.3437 330.5232 14.25333857817221 RESURS 1 25394U 98043A 14030.04638646 .00000065 00000-0 45833-4 0 5761 2 25394 098.3952 000.3719 0000616 007.0356 034.8235 14.24363291808652 FENGYUN1 1 25730U 99025A 14030.48887451 .00001904 00000-0 10748-2 0 688 2 25730 098.9027 352.5684 0027395 133.0519 339.6436 14.11281401758091 OKEAN-0 1 25860U 99039A 14030.88669946 .00000936 00000-0 14696-3 0 1613 2 25860 098.0251 355.7437 0002000 114.2432 326.8285 14.74934209781914 NOAA-16 1 26536U 00055A 14030.52457138 .00000237 00000-0 15138-3 0 5444 2 26536 099.0097 090.1719 0010368 209.6231 285.7517 14.12978637688674 NOAA-17 1 27453U 02032A 14030.50504521 .00000152 00000-0 82850-4 0 4493 2 27453 098.3122 037.4939 0011256 213.1997 309.4290 14.24679772603083 NOAA-18 1 28654U 05018A 14030.50606575 .00000330 00000-0 20565-3 0 9358 2 28654 099.1330 007.3639 0013357 291.8263 218.7520 14.11934706448131 NOAA-19 1 33591U 09005A 14030.50001032 .00000214 00000-0 14213-3 0 1065 2 33591 098.9312 336.0622 0014693 145.1771 339.5003 14.11629333256566 HUBBLE 1 20580U 90037B 14030.80418478 .00002794 00000-0 18228-3 0 4274 2 20580 028.4691 219.7497 0002847 261.7997 221.9149 15.04583082104007 ISS 1 25544U 98067A 14030.69267484 .00043747 00000-0 77113-3 0 5830 2 25544 051.6483 061.1409 0003795 087.4873 016.3400 15.49963915869998 CO-58 1 28895U 05043F 14029.79838864 .00001036 00000-0 21713-3 0 6830 2 28895 097.8459 238.7783 0018780 088.4457 271.8896 14.61522066440039 FALCON 1 30776U 07006E 14029.85508507 .00008886 00000-0 48852-3 0 7909 2 30776 035.4284 248.5490 0000237 338.6290 094.1635 15.13428123379744 MAST 1 31126U 07012K 14030.88397432 .00001151 00000-0 26245-3 0 9614 2 31126 097.9017 019.0681 0093762 063.2211 358.1341 14.54924911360425 CAPE1 1 31130U 07012P 14030.18893241 .00001365 00000-0 31285-3 0 9652 2 31130 097.9215 014.9122 0101193 082.2226 279.0447 14.53957013359759 COMPASS 1 32787U 08021E 14030.86252387 .00003778 00000-0 42999-3 0 8447 2 32787 097.7212 088.2881 0012973 274.3013 085.6721 14.86728600311774 AAUSAT2 1 32788U 08021F 14030.12003218 .00003573 00000-0 40131-3 0 8274 2 32788 097.7227 088.3989 0012475 275.9362 084.0433 14.87312778311715 DO-64 1 32789U 08021G 14030.83034795 .00007816 00000-0 79545-3 0 8654 2 32789 097.7392 094.3882 0011928 261.1904 163.3945 14.90963341312014 CO-66 1 32791U 08021J 14030.77226730 .00002375 00000-0 27991-3 0 8240 2 32791 097.7211 087.2281 0013437 277.0896 082.8791 14.85632128311646 RS-30 1 32953U 08025A 14030.75921713 .00000010 00000-0 00000 0 0 6065 2 32953 082.5026 286.6700 0019540 093.2753 267.0564 12.43042065258185 METEOR-M 1 35865U 09049A 14030.72727316 -.00000000 00000-0 19242-4 0 2145 2 35865 098.5710 082.1804 0002977 122.7172 237.4292 14.21906215226807 RS-38 1 35869U 09049E 14030.74120012 .00000036 00000-0 35432-4 0 1631 2 35869 098.5635 082.0413 0005671 129.7477 339.9605 14.22175577226830 JUGNU 1 37839U 11058B 14030.34329098 .00000473 00000-0 11076-3 0 5528 2 37839 019.9631 010.3306 0018874 265.8949 245.7066 14.12238068119045 SRMSAT 1 37841U 11058D 14030.28358030 .00000437 00000-0 95759-4 0 5512 2 37841 019.9735 027.2526 0011691 209.3065 271.2332 14.10292646118865 RAX-2 1 37853U 11061D 14030.86364291 .00008474 00000-0 60834-3 0 7100 2 37853 101.7113 355.3765 0226217 093.2616 343.8108 14.86438355122237 AUBIESAT 1 37854U 11061E 14029.88153221 .00008965 00000-0 62764-3 0 6940 2 37854 101.7149 355.3427 0225079 093.9450 325.1723 14.87421077122128 HRBE 1 37855U 11061F 14030.89074211 .00008861 00000-0 62541-3 0 7056 2 37855 101.7154 356.3819 0226591 091.9449 332.7478 14.86937368122256 RS-39 1 38051U 11062C 14030.75206630 .00035074 00000-0 79108-3 0 2073 2 38051 051.6305 185.4650 0007401 004.9455 126.4708 15.42873740112774 E-STAR 1 38079U 12006C 14031.00584495 .00069846 40429-5 11031-2 0 7263 2 38079 069.4646 344.8253 0496170 190.1103 168.9770 14.76472832102987 GOLIAT 1 38085U 12006J 14030.82525510 .00065053 39056-5 10543-2 0 7663 2 38085 069.4701 349.8018 0510883 192.6352 166.1587 14.72885003102835 HORYU-2 1 38340U 12025D 14030.86475166 .00002164 00000-0 35481-3 0 7466 2 38340 098.2422 345.9510 0011474 251.0328 108.9659 14.71744351 91591 RS-40 1 38735U 12041C 14030.67913415 .00000024 00000-0 10000-3 0 4735 2 38735 082.4763 013.2770 0016319 190.6143 169.4585 12.42556207 68503 PROITERES 1 38756U 12047B 14030.87124458 .00000778 00000-0 12449-3 0 5317 2 38756 098.2341 116.9205 0013565 098.8091 261.4563 14.74608051 74944 BEESAT-3 1 39134U 13015E 14030.89285052 .00005420 00000-0 41538-3 0 4885 2 39134 064.8763 212.3555 0014255 330.2527 029.7782 15.02744940 43017 BEESAT-2 1 39136U 13015G 14030.91349515 .00004833 00000-0 37472-3 0 4794 2 39136 064.8758 212.4402 0014478 330.0978 029.9333 15.02448305 43010 CAPE-2 1 39380U 13064A 14029.74173991 .00005260 00000-0 23684-3 0 769 2 39380 040.5161 198.9718 0002401 070.2899 289.8231 15.21559471 10775 TRLBLAZER 1 39382U 13064C 14030.75618714 .00036513 00000-0 13976-2 0 892 2 39382 040.5017 191.6103 0004035 345.2372 014.8493 15.25829431 10935 ZACUBE-1 1 39417U 13066B 14029.77257636 .00001694 00000-0 23811-3 0 2057 2 39417 097.7900 105.1131 0062319 333.2178 026.5832 14.77371261 10251 TRITON-1 1 39427U 13066M 14029.75361987 .00001127 00000-0 19914-3 0 587 2 39427 097.7813 103.7068 0119658 331.3829 028.0840 14.64765409 10128 DELFIN3XT 1 39428U 13066N 14029.46321242 .00001827 00000-0 32954-3 0 616 2 39428 097.7807 103.1598 0130374 332.4703 026.9635 14.62292570 10058 GOMX-1 1 39430U 13066Q 14030.43543687 .00001049 00000-0 21029-3 0 1783 2 39430 097.7765 103.4241 0157511 330.5148 028.7249 14.56221047 10163 $50SAT 1 39436U 13066W 14029.77307493 .00009918 00000-0 11520-2 0 705 2 39436 097.7924 105.8984 0029618 347.0387 013.0124 14.85246564 10296 PUCPSAT-1 1 39442U 13066AC 14030.83423806 .00002319 00000-0 27521-3 0 536 2 39442 097.7935 106.9841 0035319 338.6455 021.3300 14.85005600 9230 /EX
participants (1)
-
Ray Hoad